CW1575 Weather Reports


Display with metric or nautical units.
time (UTC)temp
F
wind
direction
speed
MPH
gust
MPH
rain 1hr
in
rain 24hr
in
rain mn
in
humidity
%
barometer
mb
20180524082004 57 324 0.0 0.0 0.00 0.03 0.00 58 1016.1
20180524081505 58 324 0.0 0.0 0.00 0.03 0.00 58 1016.0
20180524081004 58 324 0.0 0.0 0.00 0.03 0.00 57 1015.9
20180524080506 58 323 0.0 0.0 0.00 0.03 0.00 57 1015.9
20180524080007 58 323 0.0 0.0 0.00 0.03 0.00 57 1015.9
20180524075504 58 323 0.0 0.0 0.00 0.03 0.00 56 1015.9
20180524075004 58 323 0.0 1.0 0.00 0.03 0.00 56 1015.8
20180524074504 59 323 0.0 2.0 0.00 0.03 0.00 55 1015.8
20180524074004 59 323 0.0 3.0 0.00 0.03 0.00 56 1015.7
20180524073504 59 325 1.0 3.0 0.00 0.03 0.00 55 1015.8
20180524073004 59 329 2.0 3.0 0.00 0.03 0.00 55 1015.9
20180524072504 59 329 0.0 1.0 0.00 0.03 0.00 55 1015.9
20180524072004 59 329 0.0 2.0 0.00 0.03 0.00 55 1016.1
20180524071504 60 329 1.0 3.0 0.00 0.03 0.00 55 1015.9
20180524071005 60 329 0.0 1.0 0.00 0.03 0.00 55 1015.8
20180524070504 60 329 1.0 1.0 0.00 0.03 0.00 55 1015.9
20180524070004 60 338 0.0 2.0 0.00 0.03 0.00 54 1015.9
20180524065504 60 338 1.0 3.0 0.00 0.03 0.00 55 1016.0
20180524065004 60 310 0.0 3.0 0.00 0.03 0.00 55 1015.9
20180524064503 60 310 1.0 3.0 0.00 0.03 0.00 54 1015.8
20180524064004 60 318 1.0 3.0 0.00 0.03 0.00 54 1015.8
20180524063504 60 318 0.0 1.0 0.00 0.03 0.00 54 1015.8
20180524063004 60 318 1.0 2.0 0.00 0.03 0.00 53 1015.8
20180524062504 60 318 1.0 3.0 0.00 0.03 0.00 52 1015.8
20180524062004 60 318 1.0 3.0 0.00 0.03 0.00 52 1015.6
20180524061504 60 324 2.0 5.0 0.00 0.03 0.00 51 1015.6
20180524061004 60 317 2.0 5.0 0.00 0.03 0.00 51 1015.6
20180524060504 61 332 2.0 3.0 0.00 0.03 0.00 50 1015.4
20180524060004 61 322 2.0 3.0 0.00 0.03 0.00 51 1015.4
20180524055504 61 312 2.0 7.0 0.00 0.03 0.03 51 1015.3
20180524055004 61 311 3.0 5.0 0.00 0.03 0.03 53 1015.3
20180524054504 61 307 2.0 7.0 0.00 0.03 0.03 52 1015.2
20180524054005 61 312 2.0 7.0 0.00 0.03 0.03 52 1015.2
20180524053504 61 317 2.0 3.0 0.00 0.03 0.03 52 1015.2
20180524053004 61 304 3.0 8.0 0.00 0.03 0.03 52 1015.3
20180524052504 61 317 2.0 5.0 0.00 0.03 0.03 53 1015.3
20180524052004 61 311 2.0 3.0 0.00 0.03 0.03 54 1015.1
20180524051503 61 311 2.0 3.0 0.00 0.03 0.03 54 1015.0
20180524051004 61 309 3.0 7.0 0.00 0.03 0.03 54 1015.1
20180524050504 61 317 3.0 6.0 0.00 0.03 0.03 55 1015.1
20180524050004 61 322 2.0 5.0 0.00 0.03 0.03 55 1014.9
20180524045504 61 322 3.0 7.0 0.00 0.03 0.03 55 1014.8
20180524045005 61 329 2.0 3.0 0.00 0.03 0.03 56 1014.5
20180524044504 62 322 0.0 3.0 0.00 0.03 0.03 58 1014.4
20180524044004 62 323 0.0 0.0 0.00 0.03 0.03 58 1014.4
20180524043504 62 323 0.0 1.0 0.00 0.03 0.03 58 1014.3
20180524043004 63 323 0.0 0.0 0.00 0.03 0.03 57 1014.3
20180524042504 63 323 0.0 0.0 0.00 0.03 0.03 56 1014.3
20180524042004 63 323 0.0 0.0 0.00 0.03 0.03 57 1014.3
20180524041507 64 323 0.0 0.0 0.00 0.03 0.03 55 1014.3
20180524041004 64 323 0.0 0.0 0.00 0.03 0.03 54 1014.3
20180524040504 64 323 0.0 0.0 0.00 0.03 0.03 54 1014.2
20180524040004 64 323 0.0 0.0 0.00 0.03 0.03 53 1013.9
20180524035504 65 323 0.0 0.0 0.00 0.03 0.03 52 1013.9
20180524035004 65 323 0.0 0.0 0.00 0.03 0.03 51 1014.0
20180524034505 66 323 0.0 0.0 0.00 0.03 0.03 51 1014.1
20180524034004 66 323 0.0 0.0 0.00 0.03 0.03 52 1013.9
20180524033504 66 323 0.0 0.0 0.00 0.03 0.03 49 1013.7
20180524033004 66 323 0.0 0.0 0.00 0.03 0.03 48 1013.7
20180524032504 67 323 0.0 0.0 0.00 0.03 0.03 48 1013.6
20180524032005 67 323 0.0 0.0 0.00 0.03 0.03 47 1013.5
20180524031504 67 323 0.0 1.0 0.00 0.03 0.03 47 1013.4
20180524031004 67 323 0.0 2.0 0.00 0.03 0.03 46 1013.3
20180524030504 68 309 1.0 5.0 0.00 0.03 0.03 46 1013.3
20180524030004 68 309 2.0 3.0 0.00 0.03 0.03 46 1012.8
20180524025504 68 299 3.0 5.0 0.00 0.03 0.03 45 1012.8
20180524025004 69 305 3.0 6.0 0.00 0.03 0.03 45 1012.7
20180524024503 69 325 1.0 3.0 0.00 0.03 0.03 45 1012.7
20180524024004 70 325 0.0 2.0 0.00 0.03 0.03 44 1012.5
20180524023504 70 339 0.0 2.0 0.00 0.03 0.03 43 1012.1
20180524023004 70 340 0.0 2.0 0.00 0.03 0.03 43 1012.3
20180524022504 71 339 1.0 2.0 0.00 0.03 0.03 42 1012.3
20180524022005 71 340 0.0 1.0 0.00 0.03 0.03 41 1012.5
20180524021504 71 340 0.0 3.0 0.00 0.03 0.03 41 1012.5
20180524021004 71 15 3.0 5.0 0.00 0.03 0.03 40 1012.5
20180524020504 72 341 1.0 8.0 0.00 0.03 0.03 40 1012.7
20180524020004 72 315 1.0 3.0 0.00 0.03 0.03 40 1012.3
20180524015507 72 332 2.0 3.0 0.00 0.03 0.03 40 1012.2
20180524015004 72 325 3.0 6.0 0.00 0.03 0.03 40 1012.1
20180524014504 72 324 4.0 8.0 0.00 0.03 0.03 40 1011.9
20180524014004 73 331 2.0 8.0 0.00 0.03 0.03 39 1011.9
20180524013503 73 318 3.0 9.0 0.00 0.03 0.03 39 1011.8
20180524013004 73 328 3.0 7.0 0.00 0.03 0.03 40 1011.5
20180524012504 74 328 5.0 10.0 0.00 0.03 0.03 39 1011.5
20180524012004 74 318 5.0 10.0 0.00 0.03 0.03 38 1011.6
20180524011503 74 347 4.0 10.0 0.00 0.03 0.03 37 1011.6
20180524011004 74 324 4.0 10.0 0.00 0.03 0.03 36 1011.6
20180524010504 74 330 3.0 8.0 0.00 0.03 0.03 35 1011.5
20180524010004 74 309 2.0 5.0 0.00 0.03 0.03 36 1011.6
20180524005504 75 354 4.0 8.0 0.00 0.03 0.03 35 1011.4
20180524005004 75 357 6.0 12.0 0.00 0.03 0.03 35 1011.4
20180524004504 75 330 5.0 12.0 0.00 0.03 0.03 36 1011.3
20180524004004 75 334 6.0 10.0 0.00 0.03 0.03 34 1011.3
20180524003504 76 1 5.0 13.0 0.00 0.03 0.03 35 1011.3
20180524003004 76 328 5.0 12.0 0.00 0.03 0.03 34 1011.4
20180524002504 77 344 6.0 12.0 0.00 0.03 0.03 34 1011.5
20180524002004 77 335 5.0 10.0 0.00 0.03 0.03 34 1011.4
20180524001504 77 343 5.0 12.0 0.00 0.03 0.03 34 1011.3
20180524001004 77 317 6.0 13.0 0.00 0.03 0.03 35 1011.2
20180524000504 77 334 6.0 15.0 0.00 0.03 0.03 35 1011.3
20180524000004 77 334 3.0 12.0 0.00 0.03 0.03 36 1011.2
20180523235503 77 322 5.0 15.0 0.00 0.03 0.03 35 1011.3
20180523235004 77 305 7.0 12.0 0.00 0.03 0.03 35 1011.5
20180523234503 78 338 6.0 12.0 0.00 0.03 0.03 35 1011.4
20180523234004 79 331 7.0 13.0 0.00 0.03 0.03 34 1011.4
20180523233504 80 323 9.0 14.0 0.00 0.03 0.03 33 1011.4
20180523233004 80 315 8.0 15.0 0.00 0.03 0.03 33 1011.4
20180523232506 81 335 9.0 17.0 0.00 0.03 0.03 32 1011.4
20180523232004 81 315 7.0 13.0 0.00 0.03 0.03 32 1011.1
20180523231504 81 332 5.0 12.0 0.00 0.03 0.03 28 1011.0
20180523231003 82 326 5.0 12.0 0.00 0.03 0.03 28 1011.2
20180523230503 82 342 4.0 10.0 0.00 0.03 0.03 26 1011.6
20180523230004 83 331 4.0 10.0 0.00 0.03 0.03 27 1011.2
20180523225504 84 14 6.0 14.0 0.00 0.03 0.03 27 1011.2
20180523225004 84 297 2.0 7.0 0.00 0.03 0.03 27 1011.0
20180523224504 84 160 1.0 3.0 0.00 0.03 0.03 21 1011.2
20180523224004 84 300 1.0 3.0 0.00 0.03 0.03 23 1011.1
20180523223504 84 237 3.0 8.0 0.00 0.03 0.03 25 1011.2
20180523223004 84 268 3.0 8.0 0.00 0.03 0.03 24 1011.3
20180523222504 84 315 6.0 12.0 0.00 0.03 0.03 25 1011.2
20180523222004 84 209 3.0 10.0 0.00 0.03 0.03 23 1011.3
20180523221503 83 222 4.0 8.0 0.00 0.03 0.03 20 1011.4
20180523221004 83 250 2.0 10.0 0.00 0.03 0.03 24 1011.4
20180523220504 83 233 3.0 12.0 0.00 0.03 0.03 22 1011.4
20180523220003 83 202 4.0 8.0 0.00 0.03 0.03 19 1011.4
20180523215504 83 193 2.0 8.0 0.00 0.03 0.03 20 1011.4
20180523215005 83 187 3.0 9.0 0.00 0.03 0.03 20 1011.4
20180523214503 84 193 5.0 15.0 0.00 0.03 0.03 19 1011.4
20180523214004 84 189 5.0 9.0 0.00 0.03 0.03 19 1011.4
20180523213503 84 183 4.0 8.0 0.00 0.03 0.03 20 1011.4
20180523213005 84 137 4.0 13.0 0.00 0.03 0.03 20 1011.4
20180523212505 83 157 2.0 13.0 0.00 0.03 0.03 21 1011.3
20180523212004 83 150 4.0 9.0 0.00 0.03 0.03 20 1011.4
20180523211504 83 225 3.0 10.0 0.00 0.03 0.03 20 1011.6
20180523211004 82 208 3.0 9.0 0.00 0.03 0.03 21 1011.7
20180523210504 82 139 5.0 10.0 0.00 0.03 0.03 21 1011.8
20180523210004 82 111 2.0 8.0 0.00 0.03 0.03 23 1011.9
20180523205504 81 171 2.0 10.0 0.00 0.03 0.03 24 1012.1
20180523205004 81 177 2.0 9.0 0.00 0.03 0.03 23 1012.0
20180523204504 81 170 2.0 7.0 0.00 0.03 0.03 25 1012.3
20180523204004 80 188 2.0 3.0 0.00 0.03 0.03 24 1012.2
20180523203504 80 219 3.0 6.0 0.00 0.03 0.03 26 1012.1
20180523203004 79 146 2.0 5.0 0.00 0.03 0.03 28 1012.2
20180523202504 78 167 3.0 10.0 0.00 0.03 0.03 27 1012.3
20180523202005 77 212 1.0 5.0 0.00 0.03 0.03 26 1012.3
20180523201504 76 229 2.0 5.0 0.00 0.03 0.03 29 1012.3
20180523201004 75 252 1.0 6.0 0.00 0.03 0.03 33 1012.5
20180523200504 74 256 2.0 6.0 0.00 0.03 0.03 34 1012.7
20180523200004 72 207 2.0 6.0 0.01 0.03 0.03 41 1012.7
20180523195504 72 87 1.0 2.0 0.03 0.03 0.03 40 1012.8
20180523195004 71 62 1.0 3.0 0.03 0.03 0.03 48 1013.1
20180523194504 71 31 1.0 3.0 0.03 0.03 0.03 51 1013.2
20180523194004 70 355 0.0 1.0 0.03 0.03 0.03 54 1013.4
20180523193504 70 355 1.0 3.0 0.03 0.03 0.03 54 1013.3
20180523193004 70 355 0.0 1.0 0.03 0.03 0.03 55 1013.3
20180523192503 71 355 0.0 3.0 0.03 0.03 0.03 56 1013.3
20180523192004 71 355 1.0 3.0 0.03 0.03 0.03 56 1013.3
20180523191508 71 343 2.0 5.0 0.03 0.03 0.03 58 1013.4
20180523191004 72 353 3.0 9.0 0.03 0.03 0.03 55 1013.7
20180523190504 74 311 3.0 12.0 0.03 0.03 0.03 56 1013.9
20180523190003 76 318 5.0 12.0 0.02 0.02 0.02 52 1013.5
20180523185503 77 300 6.0 12.0 0.00 0.00 0.00 43 1013.3
20180523185003 79 312 6.0 13.0 0.00 0.00 0.00 35 1013.3
20180523184503 80 304 3.0 8.0 0.00 0.00 0.00 35 1013.5
20180523184004 81 324 5.0 9.0 0.00 0.00 0.00 33 1013.4
20180523183503 82 124 3.0 5.0 0.00 0.00 0.00 29 1013.2
20180523183004 82 124 7.0 10.0 0.00 0.00 0.00 28 1013.1
20180523182504 83 142 5.0 12.0 0.00 0.00 0.00 27 1013.1
20180523182005 82 143 3.0 7.0 0.00 0.00 0.00 26 1012.8
20180523181504 81 188 1.0 3.0 0.00 0.00 0.00 26 1012.8
20180523181004 81 27 2.0 8.0 0.00 0.00 0.00 25 1013.0
20180523180504 81 160 3.0 8.0 0.00 0.00 0.00 24 1013.2
20180523180004 81 154 5.0 9.0 0.00 0.00 0.00 28 1013.2
20180523175504 81 288 3.0 8.0 0.00 0.00 0.00 30 1013.4
20180523175004 81 47 1.0 6.0 0.00 0.00 0.00 29 1013.4
20180523174504 81 115 4.0 9.0 0.00 0.00 0.00 33 1013.6
20180523174004 81 1 2.0 8.0 0.00 0.00 0.00 33 1014.0
20180523173504 80 126 2.0 3.0 0.00 0.00 0.00 34 1014.1
20180523173004 80 41 0.0 7.0 0.00 0.00 0.00 34 1014.2
20180523172503 80 127 4.0 7.0 0.00 0.00 0.00 35 1014.1
20180523172004 80 219 1.0 3.0 0.00 0.00 0.00 36 1014.1
20180523171504 79 13 2.0 6.0 0.00 0.00 0.00 37 1014.1
20180523171004 78 58 1.0 2.0 0.00 0.00 0.00 36 1014.1
20180523170504 78 111 0.0 6.0 0.00 0.00 0.00 37 1014.3
20180523170004 77 47 1.0 5.0 0.00 0.00 0.00 37 1014.4
20180523165504 77 110 1.0 3.0 0.00 0.00 0.00 39 1014.4
20180523165004 76 119 1.0 3.0 0.00 0.00 0.00 39 1014.5
20180523164504 76 40 1.0 5.0 0.00 0.00 0.00 39 1014.5
20180523164004 75 104 2.0 9.0 0.00 0.00 0.00 39 1014.5
20180523163503 75 135 3.0 9.0 0.00 0.00 0.00 41 1014.5
20180523163004 74 132 1.0 7.0 0.00 0.00 0.00 42 1014.5
20180523162504 73 180 1.0 7.0 0.00 0.00 0.00 41 1014.6
20180523162004 73 133 2.0 8.0 0.00 0.00 0.00 43 1014.5
20180523161504 72 113 1.0 3.0 0.00 0.00 0.00 43 1014.6
20180523161004 71 135 1.0 3.0 0.00 0.00 0.00 43 1014.5
20180523160504 71 131 4.0 9.0 0.00 0.00 0.00 43 1014.5
20180523160005 71 110 5.0 8.0 0.00 0.00 0.00 43 1014.6
20180523155503 71 112 4.0 8.0 0.00 0.00 0.00 43 1014.8
20180523155004 71 172 2.0 6.0 0.00 0.00 0.00 44 1014.9
20180523154504 70 132 1.0 7.0 0.00 0.00 0.00 45 1014.9
20180523154004 70 113 1.0 2.0 0.00 0.00 0.00 45 1014.9
20180523153504 69 114 1.0 3.0 0.00 0.00 0.00 46 1015.1
20180523153004 69 161 1.0 3.0 0.00 0.00 0.00 49 1015.2
20180523152503 68 159 1.0 3.0 0.00 0.00 0.00 49 1015.4
20180523152004 68 159 0.0 5.0 0.00 0.00 0.00 50 1015.4
20180523151504 67 148 2.0 3.0 0.00 0.00 0.00 51 1015.3
20180523151003 66 105 3.0 6.0 0.00 0.00 0.00 52 1015.4
20180523150503 66 118 2.0 3.0 0.00 0.00 0.00 54 1015.6
20180523150004 65 120 1.0 3.0 0.00 0.00 0.00 55 1015.3
20180523145503 65 110 3.0 6.0 0.00 0.00 0.00 54 1015.6
20180523145004 64 124 1.0 3.0 0.00 0.00 0.00 57 1015.4
20180523144504 63 121 1.0 2.0 0.00 0.00 0.00 58 1015.5
20180523144004 63 121 0.0 3.0 0.00 0.00 0.00 59 1015.4
20180523143504 62 121 2.0 3.0 0.00 0.00 0.00 59 1015.5
20180523143004 61 123 1.0 3.0 0.00 0.00 0.00 62 1015.2
20180523142503 60 129 1.0 3.0 0.00 0.00 0.00 64 1015.2
20180523142004 59 189 0.0 0.0 0.00 0.00 0.00 68 1015.1
20180523141503 58 189 0.0 0.0 0.00 0.00 0.00 69 1015.0
20180523141004 57 189 0.0 0.0 0.00 0.00 0.00 70 1015.0
20180523140504 57 189 0.0 0.0 0.00 0.00 0.00 72 1015.2
20180523140004 56 189 0.0 0.0 0.00 0.00 0.00 75 1015.2
20180523135505 55 189 0.0 1.0 0.00 0.00 0.00 78 1015.5
20180523135004 54 190 2.0 3.0 0.00 0.00 0.00 80 1015.3
20180523134503 53 111 0.0 0.0 0.00 0.00 0.00 82 1015.3
20180523134004 52 111 0.0 0.0 0.00 0.00 0.00 83 1015.4
20180523133512 51 111 0.0 0.0 0.00 0.00 0.00 86 1015.4
20180523133005 50 111 0.0 0.0 0.00 0.00 0.00 88 1015.4
20180523132504 50 111 0.0 0.0 0.00 0.00 0.00 90 1015.4
20180523132006 49 111 0.0 1.0 0.00 0.00 0.00 91 1015.4
20180523131504 48 111 2.0 3.0 0.00 0.00 0.00 91 1015.3
20180523131004 48 23 0.0 0.0 0.00 0.00 0.00 91 1015.3
20180523130504 48 23 0.0 0.0 0.00 0.00 0.00 90 1015.4
20180523130003 48 23 0.0 0.0 0.00 0.00 0.00 90 1015.4
20180523125503 48 23 0.0 0.0 0.00 0.00 0.00 90 1015.5
20180523125003 47 23 0.0 0.0 0.00 0.00 0.00 90 1015.4
20180523124504 47 23 0.0 0.0 0.00 0.00 0.00 89 1015.4
20180523124004 47 23 0.0 0.0 0.00 0.00 0.00 89 1015.4
20180523123503 47 23 0.0 0.0 0.00 0.00 0.00 89 1015.4
20180523123004 47 23 0.0 0.0 0.00 0.00 0.00 88 1015.4
20180523122503 47 23 0.0 0.0 0.00 0.00 0.00 88 1015.4
20180523122005 47 23 0.0 0.0 0.00 0.00 0.00 88 1015.4
20180523121504 47 23 0.0 0.0 0.00 0.00 0.00 87 1015.5
20180523121004 47 23 0.0 0.0 0.00 0.00 0.00 88 1015.5
20180523120504 47 23 0.0 0.0 0.00 0.00 0.00 87 1015.5
20180523120004 48 23 0.0 0.0 0.00 0.00 0.00 87 1015.4
20180523115504 48 23 0.0 0.0 0.00 0.00 0.00 87 1015.3
20180523115004 48 23 0.0 0.0 0.00 0.00 0.00 87 1015.1
20180523114504 48 23 0.0 0.0 0.00 0.00 0.00 87 1015.2
20180523114003 48 23 0.0 0.0 0.00 0.00 0.00 87 1014.9
20180523113503 48 23 0.0 0.0 0.00 0.00 0.00 87 1014.9
20180523113005 48 23 0.0 0.0 0.00 0.00 0.00 87 1015.0
20180523112504 48 23 0.0 0.0 0.00 0.00 0.00 87 1014.9
20180523112007 48 23 0.0 0.0 0.00 0.01 0.00 87 1014.9
20180523111503 49 23 0.0 0.0 0.00 0.01 0.00 87 1014.9
20180523111004 49 23 0.0 0.0 0.00 0.02 0.00 87 1014.9
20180523110504 49 23 0.0 0.0 0.00 0.02 0.00 87 1014.7
20180523110004 49 23 0.0 0.0 0.00 0.03 0.00 87 1014.6
20180523105503 49 23 0.0 0.0 0.00 0.04 0.00 87 1014.6
20180523105004 49 23 0.0 0.0 0.00 0.04 0.00 87 1014.6
20180523104504 49 23 0.0 0.0 0.00 0.04 0.00 87 1014.6
20180523104004 49 23 0.0 0.0 0.00 0.04 0.00 87 1014.5
20180523103504 49 23 0.0 0.0 0.00 0.04 0.00 87 1014.4
20180523103004 49 23 0.0 0.0 0.00 0.04 0.00 87 1014.5
20180523102503 50 23 0.0 0.0 0.00 0.04 0.00 86 1014.5
20180523102004 50 23 0.0 0.0 0.00 0.04 0.00 86 1014.5
20180523101504 50 23 0.0 0.0 0.00 0.04 0.00 86 1014.4
20180523101004 50 23 0.0 0.0 0.00 0.04 0.00 86 1014.4
20180523100504 50 23 0.0 0.0 0.00 0.04 0.00 86 1014.4
20180523100004 50 23 0.0 0.0 0.00 0.04 0.00 86 1014.3
20180523095503 50 23 0.0 0.0 0.00 0.04 0.00 86 1014.3
20180523095004 51 23 0.0 0.0 0.00 0.04 0.00 86 1014.2
20180523094503 51 23 0.0 0.0 0.00 0.04 0.00 86 1014.2
20180523094003 51 23 0.0 0.0 0.00 0.04 0.00 86 1014.2
20180523093503 51 23 0.0 0.0 0.00 0.04 0.00 86 1014.2
20180523093004 51 23 0.0 0.0 0.00 0.04 0.00 86 1014.1
20180523092504 51 23 0.0 0.0 0.00 0.04 0.00 86 1014.0
20180523091503 51 23 0.0 0.0 0.00 0.04 0.00 87 1014.1
20180523091004 52 23 0.0 0.0 0.00 0.04 0.00 87 1014.1
20180523090503 52 23 0.0 0.0 0.00 0.04 0.00 86 1014.1
20180523090004 52 23 0.0 0.0 0.00 0.04 0.00 86 1014.1
20180523085504 52 23 0.0 0.0 0.00 0.04 0.00 86 1014.0
20180523085004 52 23 0.0 0.0 0.00 0.04 0.00 86 1014.0
20180523084504 52 23 0.0 0.0 0.00 0.04 0.00 86 1013.9
20180523084005 52 23 0.0 0.0 0.00 0.04 0.00 86 1014.0
20180523083504 53 23 0.0 0.0 0.00 0.04 0.00 86 1014.0
20180523083003 53 23 0.0 0.0 0.00 0.04 0.00 86 1014.0
20180523082503 53 23 0.0 0.0 0.00 0.04 0.00 86 1013.8